Le nostre stazioni meteo in Italia

Pubblicità
Il mio iltempo24.it
Pratica Di Mare, Italia (16245): Temperatura & dewpoint: 09.11.2018 08:00:00 - 15.11.2018 08:00:00 (CET)Pratica Di Mare, Italia (16245): velocità del vento: 09.11.2018 08:00:00 - 15.11.2018 08:00:00 (CET)Pratica Di Mare, Italia (16245): direzione del vento: 09.11.2018 08:00:00 - 15.11.2018 08:00:00 (CET)Pratica Di Mare, Italia (16245): reduced air pressure: 09.11.2018 08:00:00 - 15.11.2018 08:00:00 (CET)Pratica Di Mare, Italia (16245): visibility: 09.11.2018 08:00:00 - 15.11.2018 08:00:00 (CET)
Data & Tempo tt [°C] td [°C] ff [km/h] ff [kn] dd ppp [hPa] vv [km]
15.11.2018 08:00:00 11,0 10,0 13 7 NNE - 10
15.11.2018 07:00:00 11,0 10,2 18 10 NNE 1022,5 10
15.11.2018 06:00:00 11,0 10,0 16 9 NNE - 10
15.11.2018 05:00:00 11,0 11,0 11 6 NNE - 10
15.11.2018 04:00:00 11,4 10,5 13 7 NNE 1022,2 10
15.11.2018 03:00:00 12,0 11,0 11 6 N - 10
15.11.2018 02:00:00 13,0 12,0 18 10 NNE - 10
15.11.2018 01:00:00 13,6 12,5 16 9 NNE 1023,2 10
15.11.2018 00:00:00 14,0 13,0 15 8 NNE - 10
14.11.2018 23:00:00 13,0 13,0 13 7 N - 10
14.11.2018 22:00:00 13,4 12,5 9 5 N 1024,3 10
14.11.2018 21:00:00 14,0 13,0 8 4 N - 10
14.11.2018 20:00:00 14,0 13,0 8 4 NNE - 10
14.11.2018 19:00:00 14,2 13,3 8 4 N 1024,5 15
14.11.2018 18:00:00 15,0 14,0 5 3 N - 10
14.11.2018 17:00:00 17,0 16,0 8 4 NO - 10
14.11.2018 16:00:00 18,2 13,1 9 5 O 1024,6 15
14.11.2018 15:00:00 18,0 12,0 9 5 NO - 10
14.11.2018 14:00:00 18,0 11,0 8 4 NO - 10
14.11.2018 13:00:00 17,4 11,4 9 5 N 1025,8 15
14.11.2018 12:00:00 16,0 10,0 9 5 N - 10
14.11.2018 11:00:00 15,0 12,0 13 7 N - 10
14.11.2018 10:00:00 14,0 11,7 15 8 NNE 1027,2 15
14.11.2018 09:00:00 12,0 11,0 18 10 NNE - 10
14.11.2018 08:00:00 11,0 10,0 15 8 N - 10
14.11.2018 07:00:00 11,0 10,2 15 8 NNE 1026,6 12
14.11.2018 06:00:00 12,0 11,0 13 7 N - 10
14.11.2018 05:00:00 13,0 12,0 13 7 NNE - 10
14.11.2018 04:00:00 13,0 12,2 13 7 NNE 1027,1 12
14.11.2018 03:00:00 13,0 12,0 9 5 N - 10
14.11.2018 02:00:00 14,0 13,0 13 7 NNE - 10
14.11.2018 01:00:00 13,8 12,9 13 7 NNE 1027,7 10
14.11.2018 00:00:00 14,0 13,0 11 6 NNE - 8
13.11.2018 23:00:00 15,0 14,0 11 6 NNE - 8
13.11.2018 22:00:00 15,0 14,5 9 5 N 1027,8 8
13.11.2018 21:00:00 15,0 14,0 8 4 NNE - 10
13.11.2018 20:00:00 15,0 15,0 9 5 NNE - 10
13.11.2018 19:00:00 15,4 14,6 8 4 N 1028,0 10
13.11.2018 18:00:00 17,0 16,0 8 4 NNO - 10
13.11.2018 17:00:00 17,0 16,0 5 3 NO - 10
13.11.2018 16:00:00 18,8 17,0 11 6 ONO 1027,6 10
13.11.2018 15:00:00 18,0 16,0 13 7 O - 10
13.11.2018 14:00:00 19,0 16,0 13 7 O - 10
13.11.2018 13:00:00 19,2 16,1 13 7 OSO 1028,3 10
13.11.2018 12:00:00 19,0 16,0 9 5 SO - 10
13.11.2018 11:00:00 18,0 15,0 4 2 OSO - 10
13.11.2018 10:00:00 16,4 14,2 5 3 N 1028,9 10
13.11.2018 09:00:00 14,0 13,0 13 7 NNE - 8
13.11.2018 08:00:00 14,0 13,0 13 7 NNE - 8
13.11.2018 07:00:00 13,0 12,4 9 5 NNE 1027,8 8
13.11.2018 06:00:00 13,0 12,0 11 6 NNE - 10
13.11.2018 05:00:00 14,0 13,0 9 5 NE - 10
13.11.2018 04:00:00 13,8 13,2 9 5 NNE 1027,7 10
13.11.2018 03:00:00 14,0 13,0 9 5 NNE - 10
13.11.2018 02:00:00 14,0 14,0 9 5 NE - 10
13.11.2018 01:00:00 14,0 13,7 9 5 NE 1027,7 10
13.11.2018 00:00:00 14,0 13,0 8 4 NNE - 10
12.11.2018 23:00:00 14,0 14,0 8 4 NE - 10
12.11.2018 22:00:00 14,4 14,1 8 4 NE 1027,3 10
12.11.2018 21:00:00 15,0 14,0 8 4 NE - 10
12.11.2018 20:00:00 15,0 14,0 5 3 NE - 10
12.11.2018 19:00:00 15,0 14,2 5 3 NNE 1026,7 15
12.11.2018 18:00:00 16,0 15,0 5 3 N - 10
12.11.2018 17:00:00 18,0 17,0 2 1 O - 10
12.11.2018 16:00:00 18,8 17,0 5 3 OSO 1026,2 20
12.11.2018 15:00:00 19,0 16,0 8 4 SO - 10
12.11.2018 14:00:00 19,0 14,0 8 4 SO - 10
12.11.2018 13:00:00 19,0 15,5 9 5 SSO 1026,7 25
12.11.2018 12:00:00 19,0 13,0 9 5 SSO - 10
12.11.2018 11:00:00 18,0 13,0 8 4 S - 10
12.11.2018 10:00:00 17,4 13,9 11 6 SE 1026,6 20
12.11.2018 09:00:00 15,0 13,0 8 4 NNE - 10
12.11.2018 08:00:00 13,0 12,0 9 5 N - 8
12.11.2018 07:00:00 11,8 11,4 9 5 NE 1025,4 8
12.11.2018 06:00:00 13,0 12,0 9 5 NE - 10
12.11.2018 05:00:00 12,0 12,0 4 2 NE - 10
12.11.2018 04:00:00 13,2 12,6 9 5 NE 1024,5 10
12.11.2018 03:00:00 13,0 12,0 9 5 NE - 10
12.11.2018 02:00:00 13,0 12,0 5 3 NE - 10
12.11.2018 01:00:00 13,8 13,2 4 2 NNE 1024,2 15
12.11.2018 00:00:00 14,0 13,0 5 3 NE - 10
11.11.2018 23:00:00 14,0 14,0 8 4 NE - 10
11.11.2018 22:00:00 14,4 13,8 2 1 NE 1023,0 15
11.11.2018 21:00:00 15,0 14,0 8 4 NE - 10
11.11.2018 20:00:00 14,0 13,0 8 4 NNE - 10
11.11.2018 19:00:00 15,4 14,6 8 4 N 1021,7 15
11.11.2018 18:00:00 16,0 15,0 5 3 N - 10
11.11.2018 17:00:00 18,0 14,0 2 1 ONO - 10
11.11.2018 16:00:00 18,6 13,9 8 4 O 1020,7 20
11.11.2018 15:00:00 19,0 12,0 9 5 OSO - 10
11.11.2018 14:00:00 19,0 12,0 11 6 OSO - 10
11.11.2018 13:00:00 19,2 12,9 8 4 SO 1020,0 20
11.11.2018 12:00:00 19,0 13,0 8 4 SO - 10
11.11.2018 11:00:00 18,0 13,0 5 3 E - 10
11.11.2018 10:00:00 16,0 13,1 9 5 NNE 1019,7 20
11.11.2018 09:00:00 15,0 13,0 8 4 NNE - 10
11.11.2018 08:00:00 12,0 11,0 5 3 NNE - 10
11.11.2018 07:00:00 11,2 10,3 11 6 NNE 1019,0 10
11.11.2018 06:00:00 12,0 11,0 8 4 NNE - 10
11.11.2018 05:00:00 12,0 11,0 11 6 NNE - 10
11.11.2018 04:00:00 12,0 11,1 9 5 NNE 1017,8 10
11.11.2018 03:00:00 12,0 11,0 16 9 NNE - 10
11.11.2018 02:00:00 14,0 13,0 9 5 NNE - 10
11.11.2018 01:00:00 14,4 13,4 11 6 NNE 1018,0 10
11.11.2018 00:00:00 14,0 13,0 8 4 NNE - 10
10.11.2018 23:00:00 14,0 13,0 9 5 NE - 10
10.11.2018 22:00:00 14,2 12,8 9 5 NNE 1016,8 10
10.11.2018 21:00:00 14,0 14,0 9 5 NE - 10
10.11.2018 20:00:00 14,0 14,0 8 4 NE - 10
10.11.2018 19:00:00 14,8 14,2 8 4 NE 1015,8 12
10.11.2018 18:00:00 15,0 14,0 4 2 NE - 10
10.11.2018 17:00:00 18,0 14,0 4 2 SSO - 10
10.11.2018 16:00:00 18,8 13,7 8 4 S 1015,1 15
10.11.2018 15:00:00 19,0 14,0 11 6 SSO - 10
10.11.2018 14:00:00 19,0 13,0 11 6 SSO - 10
10.11.2018 13:00:00 18,8 13,4 13 7 S 1015,6 15
10.11.2018 12:00:00 18,0 13,0 13 7 SE - 10
10.11.2018 11:00:00 17,0 13,0 9 5 E - 10
10.11.2018 10:00:00 16,6 13,7 8 4 ENE 1016,3 15
10.11.2018 09:00:00 16,0 14,0 9 5 NNE - 10
10.11.2018 08:00:00 15,0 12,0 8 4 ENE - 10
10.11.2018 07:00:00 14,8 12,8 9 5 ENE 1016,0 15
10.11.2018 06:00:00 14,0 13,0 9 5 ENE - 10
10.11.2018 05:00:00 14,0 13,0 9 5 NE - 10
10.11.2018 04:00:00 14,0 13,2 9 5 ENE 1016,6 12
10.11.2018 03:00:00 14,0 13,0 13 7 NE - 10
10.11.2018 02:00:00 16,0 15,0 11 6 ENE - 10
10.11.2018 01:00:00 16,0 15,2 11 6 ENE 1017,4 12
10.11.2018 00:00:00 16,0 15,0 9 5 ENE - 10
09.11.2018 23:00:00 17,0 15,0 9 5 ENE - 10
09.11.2018 22:00:00 16,0 14,7 11 6 ENE 1017,8 12
09.11.2018 21:00:00 17,0 15,0 9 5 E - 10
09.11.2018 20:00:00 17,0 16,0 9 5 E - 10
09.11.2018 19:00:00 17,2 15,7 9 5 E 1017,9 10
09.11.2018 18:00:00 17,0 16,0 9 5 E - 10
09.11.2018 17:00:00 17,0 16,0 9 5 SE - 10
09.11.2018 16:00:00 18,8 16,2 15 8 S 1017,5 15
09.11.2018 15:00:00 19,0 15,0 18 10 SSE - 10
09.11.2018 14:00:00 19,0 16,0 21 11 S - 10
09.11.2018 13:00:00 19,4 16,4 18 10 S 1017,9 15
09.11.2018 12:00:00 18,0 16,0 5 3 E - 10
09.11.2018 11:00:00 17,0 15,0 11 6 ESE - 10
09.11.2018 10:00:00 17,4 14,7 11 6 ESE 1019,9 10
09.11.2018 09:00:00 16,0 13,0 13 7 E - 10
09.11.2018 08:00:00 14,0 13,0 8 4 E - 10

tt = Temperatura
td = dewpoint
ff = velocità del vento
dd = direzione del vento
ppp = reduced air pressure
vv = visibility

Stazioni seguenti

WeatherPro
AMSI
MeteoEarth